This demonstration page uses our WeatherBlox Daily Observations layout. Learn more.

Left ArrowRight Arrow

38.88101, -77.10428

Hourly Observations for October 24, 2021

Temp ( °F °C ) Dew Point ( °F °C ) Humidity (%) Winds ( mph kmh ) Pressure ( in mb ) Visibility ( mi km ) Precip ( " mm )
12:52 am 00:52 Cloudy 57 13.9 46 7.8 67 67 N 12 19 30.09 1019 10 16 N/A
1:52 am 01:52 Cloudy with Light Rain 57 13.9 45 7.2 64 64 N 7 11 30.11 1020 10 16 0.00 0.00
2:52 am 02:52 Cloudy 57 13.9 45 7.2 64 64 ESE 6 9 30.12 1020 10 16 0.00 0.00
3:52 am 03:52 Cloudy 56 13.3 45 7.2 67 67 ENE 6 9 30.12 1020 10 16 0.00 0.00
4:52 am 04:52 Cloudy 57 13.9 43 6.1 60 60 N N/A 30.13 1020 10 16 N/A
5:52 am 05:52 Cloudy 57 13.9 44 6.7 62 62 N N/A 30.15 1021 10 16 N/A
6:52 am 06:52 Cloudy with Light Rain 56 13.3 46 7.8 70 70 S 5 7 30.16 1021 10 16 0.00 0.00
7:52 am 07:52 Cloudy 56 13.3 46 7.8 70 70 N N/A 30.18 1022 10 16 0.00 0.00
8:52 am 08:52 Cloudy 57 13.9 45 7.2 64 64 SSE 3 6 30.19 1022 10 16 N/A
9:52 am 09:52 Cloudy 58 14.4 46 7.8 65 65 SE 3 6 30.21 1023 10 16 N/A
10:52 am 10:52 Cloudy 60 15.6 48 8.9 65 65 SSE 7 11 30.19 1022 10 16 N/A
11:52 am 11:52 Cloudy 62 16.7 47 8.3 58 58 SSE 7 11 30.18 1022 10 16 N/A
12:52 pm 12:52 Mostly Cloudy 65 18.3 48 8.9 54 54 S 7 11 30.17 1022 10 16 N/A
1:52 pm 13:52 Partly Cloudy 68 20 50 10 53 53 S 8 13 30.14 1021 10 16 N/A
2:52 pm 14:52 Mostly Cloudy 70 21.1 52 11.1 53 53 S 12 19 30.11 1020 10 16 N/A
3:52 pm 15:52 Sunny 70 21.1 52 11.1 53 53 S 9 15 30.10 1019 10 16 N/A
4:52 pm 16:52 Partly Cloudy 70 21.1 53 11.7 55 55 S 10 17 30.09 1019 10 16 N/A
5:52 pm 17:52 Mostly Cloudy 68 20 54 12.2 61 61 SSE 7 11 30.06 1018 10 16 N/A
6:52 pm 18:52 Mostly Cloudy 66 18.9 54 12.2 65 65 ESE 9 15 30.07 1018 10 16 N/A
7:52 pm 19:52 Mostly Cloudy 64 17.8 56 13.3 75 75 S 8 13 30.07 1018 10 16 N/A
8:52 pm 20:52 Mostly Cloudy 64 17.8 57 13.9 78 78 S 10 17 30.06 1018 10 16 N/A
9:52 pm 21:52 Partly Cloudy 64 17.8 58 14.4 81 81 S 12 19 30.05 1018 10 16 N/A
10:52 pm 22:52 Partly Cloudy 64 17.8 57 13.9 78 78 S 12 19 30.04 1017 10 16 N/A
11:52 pm 23:52 Mostly Cloudy 63 17.2 57 13.9 81 81 S 12 19 30.03 1017 10 16 N/A

Powered by AerisWeather